Location: Unspecified
(35.7250°N, 0.0000°E)
Time: 01:27:07
(UTC+00:00)

Vanguard 2 - Pass Details

Date: 20 June 2019
Orbit: 554 x 2937 km, 32.9° (Epoch: 14 October)

Event Time Altitude Azimuth Distance (km) Brightness Sun altitude
Rises 13:35:47 0° 279° (W) 4,665 11.8 66.2°
Reaches altitude 10° 13:38:32 10° 274° (W) 3,959 11.7 65.7°
Maximum altitude 13:49:16 52° 202° (SSW) 2,730 11.7 63.7°
Drops below altitude 10° 14:05:07 10° 133° (SE) 5,670 11.9 60.6°
Sets 14:09:59 0° 129° (SE) 6,772 12.2 59.7°
